This is the latest recevied weather packets stored in our database for station/object AE5HO. If no packets are shown the sender has not sent any weather packets the latest 10 day(s).
| Time | Temp. | Humidity | Pressure | Rain* | Wind** | Luminosity | Snow |
|---|---|---|---|---|---|---|---|
| 1777190853 | 22.22° C | 73% | 1006.2 hPa | 0 mm | - | 0 W/m² | - |
| 1777190550 | 22.22° C | 73% | 1006.5 hPa | 0 mm | - | 0 W/m² | - |
| 1777190246 | 22.78° C | 74% | 1006.2 hPa | 0 mm | - | 0 W/m² | - |
| 1777189941 | 22.78° C | 73% | 1005.9 hPa | 0 mm | - | 0 W/m² | - |
| 1777189638 | 22.78° C | 73% | 1006.2 hPa | 0 mm | - | 0 W/m² | - |
| 1777189333 | 22.78° C | 72% | 1006.2 hPa | 0 mm | - | 0 W/m² | - |
| 1777189028 | 22.78° C | 72% | 1006.1 hPa | 0 mm | - | 0 W/m² | - |
| 1777188726 | 23.33° C | 75% | 1006 hPa | 0 mm | - | 0 W/m² | - |
| 1777188422 | 23.33° C | 76% | 1006 hPa | 0 mm | - | 0 W/m² | - |
| 1777188121 | 23.33° C | 77% | 1006.1 hPa | 0 mm | - | 0 W/m² | - |
| 1777187817 | 23.33° C | 77% | 1005.9 hPa | 0 mm | - | 0 W/m² | - |
| 1777187512 | 23.33° C | 78% | 1006 hPa | 0 mm | - | 0 W/m² | - |
| 1777187208 | 23.33° C | 78% | 1006 hPa | 0 mm | - | 0 W/m² | - |
| 1777186903 | 23.33° C | 78% | 1006 hPa | 0 mm | - | 0 W/m² | - |
| 1777186600 | 23.33° C | 80% | 1005.7 hPa | 0 mm | - | 0 W/m² | - |
| 1777186299 | 23.33° C | 79% | 1005.6 hPa | 0 mm | - | 0 W/m² | - |
| 1777185994 | 23.33° C | 80% | 1005.9 hPa | 0 mm | - | 0 W/m² | - |
| 1777185692 | 23.33° C | 82% | 1006.1 hPa | 0 mm | - | 0 W/m² | - |
| 1777185387 | 23.89° C | 82% | 1006.2 hPa | 0 mm | - | 0 W/m² | - |
| 1777185083 | 23.89° C | 79% | 1006.2 hPa | 0 mm | - | 0 W/m² | - |
| 1777184783 | 23.89° C | 76% | 1006.1 hPa | 0 mm | - | 0 W/m² | - |
| 1777184478 | 23.89° C | 74% | 1006.1 hPa | 0 mm | - | 0 W/m² | - |
| 1777184178 | 23.89° C | 72% | 1006.1 hPa | 0 mm | - | 0 W/m² | - |
| 1777183874 | 23.89° C | 72% | 1006.2 hPa | 0 mm | - | 0 W/m² | - |
| 1777183571 | 23.89° C | 73% | 1006 hPa | 0 mm | - | 0 W/m² | - |
* Rain latest hour (hover to see other rain measurements)
** Current wind speed in m/s (hover to see current wind gust speed)